Simultaneous Nadir Overpasses (SNOs) Predictions

Prediction of SNOs between AQUA and METOP-A Satellite Orbit:

Table of predicted SNOs for the next 14.0 days since TLE Epoch: 11/29/2013
Index Date (AQUA) Time (AQUA) Lat,Lon (AQUA) SZA (AQUA ) Date (METOP-A) Time (METOP-A) Lat,Lon (METOP-A) SZA (METOP-A ) Distance(km) Time Diff (sec)
1 12/01/2013 22:50:26 -73.82, 11.61 84.32 12/01/2013 22:49:36 -73.83, 11.59 84.31 1.16 50
2 12/01/2013 23:39:55 73.89, 179.09 95.77 12/01/2013 23:40:14 73.90, 179.10 95.78 1.25 19
3 12/04/2013 18:24:41 -73.85, 77.99 83.90 12/04/2013 18:23:54 -73.85, 78.06 83.89 2.19 47
4 12/04/2013 19:14:10 73.93,-114.54 96.19 12/04/2013 19:14:32 73.93,-114.43 96.19 3.57 22
5 12/07/2013 13:58:55 -73.82, 144.50 83.59 12/07/2013 13:58:14 -73.82, 144.39 83.58 3.36 41
6 12/07/2013 14:48:24 73.90, -48.04 96.51 12/07/2013 14:48:52 73.89, -48.10 96.50 2.18 28
7 12/10/2013 09:33:09 -73.84,-149.09 83.28 12/10/2013 09:32:32 -73.87,-149.06 83.25 3.35 37
8 12/10/2013 10:22:38 73.93, 18.35 96.82 12/10/2013 10:23:10 73.94, 18.45 96.83 3.41 32
9 12/13/2013 05:07:22 -73.85, -82.68 83.04 12/13/2013 05:06:51 -73.86, -82.66 83.04 0.77 31
10 12/13/2013 05:56:51 73.95, 84.75 97.06 12/13/2013 05:57:29 73.93, 84.85 97.04 3.27 38




NCC Satellite Simultaneous Nadir Overpasses (SNOs) Prediction Service
